Date String (YYYY-MM-DD hh:mm:ss) UTC,Instrument flags,absolute air pressure of the measurement (hPa),sample flow rate (lpm),inlet stack bypass flow (lpm),air temperature of the measurement (°C),ambient temperature measured by the external sensor (°C),aerosol sample conditioner tube jacket temperature (°C),OPC LED temperature (°C),internal box temperature (°C),relative humidity of the measurement (%),span deviation,mass concentration of particles derived from Lorenz-Mie calculation of OPC scattering (μg/m³),mass concentration of particles derived from Lorenz-Mie calculation of OPC scattering (μg/m³),mass concentration of particles derived from Lorenz-Mie calculation of OPC scattering (μg/m³)
DateTimeUTC,F1_M11,P_M11,Q1_M11,Q2_M11,T1_M11,T2_M11,T3_M11,T4_M11,T5_M11,U1_M11,ZSPAN_M11,X2_M11,X0_M11,X1_M11
2023-05-31 04:00:00,SystemResetWarning,0826.6,5.00,000.00,029.3,027.7,000.0,037.7,030.9,18.1,0000.0,0003.99,0010.20,0002.99
2023-05-31 04:01:00,SystemResetWarning,0826.6,5.00,000.00,029.3,027.7,000.0,037.7,030.9,18.1,0000.0,0003.98,0009.79,0003.01
2023-05-31 04:02:00,SystemResetWarning,0826.6,5.00,000.00,029.3,027.7,000.0,037.7,030.9,18.1,0000.0,0003.96,0009.14,0003.02
2023-05-31 04:03:00,SystemResetWarning,0826.6,4.98,000.00,029.3,027.7,000.0,037.7,030.9,18.1,0000.0,0003.91,0009.12,0003.03
2023-05-31 04:04:00,SystemResetWarning,0826.6,5.00,000.00,029.3,027.6,000.0,037.7,030.9,17.8,0000.0,0003.87,0009.18,0003.05
2023-05-31 04:05:00,SystemResetWarning,0826.8,5.01,000.00,029.3,027.6,000.0,037.7,030.9,17.6,0000.0,0003.87,0009.84,0003.08
2023-05-31 04:06:00,SystemResetWarning,0826.8,5.01,000.00,029.3,027.6,000.0,037.7,030.9,17.5,0000.0,0003.83,0010.53,0003.08
2023-05-31 04:07:00,SystemResetWarning,0827.0,5.00,000.00,029.3,027.7,000.0,037.7,030.9,17.5,0000.0,0003.85,0010.72,0003.09
2023-05-31 04:08:00,SystemResetWarning,0827.1,5.00,000.00,029.3,027.7,000.0,037.7,030.9,17.3,0000.0,0003.86,0010.16,0003.10
2023-05-31 04:09:00,SystemResetWarning,0827.1,4.99,000.00,029.3,027.7,000.0,037.7,030.9,17.3,0000.0,0003.86,0010.58,0003.10
2023-05-31 04:10:00,SystemResetWarning,0827.1,5.00,000.00,029.3,027.7,000.0,037.7,030.9,18.5,0000.0,0003.86,0010.76,0003.10
2023-05-31 04:11:00,SystemResetWarning,0827.2,5.00,000.00,029.3,027.8,000.0,037.7,030.9,18.7,0000.0,0003.89,0011.52,0003.10
2023-05-31 04:12:00,SystemResetWarning,0827.1,5.00,000.00,029.3,027.8,000.0,037.7,030.9,18.9,0000.0,0003.89,0012.09,0003.08
2023-05-31 04:13:00,SystemResetWarning,0827.2,5.01,000.00,029.3,027.8,000.0,037.7,030.9,19.1,0000.0,0003.93,0012.39,0003.09
2023-05-31 04:14:00,SystemResetWarning,0827.2,5.00,000.00,029.4,027.8,000.0,037.7,031.0,19.3,0000.0,0003.99,0013.11,0003.09
2023-05-31 04:15:00,SystemResetWarning,0827.2,4.98,000.00,029.4,027.8,000.0,037.7,031.0,19.4,0000.0,0004.09,0013.75,0003.09
2023-05-31 04:16:00,SystemResetWarning,0827.2,4.99,000.00,029.4,027.9,000.0,037.7,031.0,19.3,0000.0,0004.19,0014.42,0003.09
2023-05-31 04:17:00,SystemResetWarning,0827.2,4.99,000.00,029.4,027.9,000.0,037.7,031.0,19.3,0000.0,0004.23,0014.64,0003.08
2023-05-31 04:18:00,SystemResetWarning,0827.2,4.99,000.00,029.4,027.9,000.0,037.7,031.0,19.3,0000.0,0004.30,0016.35,0003.08
2023-05-31 04:19:00,SystemResetWarning,0827.1,5.00,000.00,029.4,027.9,000.0,037.8,031.0,19.4,0000.0,0004.30,0017.34,0003.08
2023-05-31 04:20:00,SystemResetWarning,0827.2,5.00,000.00,029.4,027.9,000.0,037.8,031.0,19.4,0000.0,0004.32,0017.13,0003.06
2023-05-31 04:21:00,SystemResetWarning,0827.2,5.01,000.00,029.4,027.9,000.0,037.8,031.0,19.5,0000.0,0004.39,0017.74,0003.06
2023-05-31 04:22:00,SystemResetWarning,0827.2,5.00,000.00,029.4,027.9,000.0,037.8,031.0,19.4,0000.0,0004.38,0018.70,0003.04
2023-05-31 04:23:00,SystemResetWarning,0827.1,4.99,000.00,029.4,027.9,000.0,037.8,031.0,19.4,0000.0,0004.37,0018.97,0003.02
2023-05-31 04:24:00,SystemResetWarning,0827.2,4.99,000.00,029.4,027.9,000.0,037.8,031.0,19.4,0000.0,0004.37,0019.54,0003.00
2023-05-31 04:25:00,SystemResetWarning,0827.2,4.98,000.00,029.4,027.9,000.0,037.8,031.0,19.5,0000.0,0004.37,0019.33,0002.97
2023-05-31 04:26:00,SystemResetWarning,0827.2,5.00,000.00,029.4,027.9,000.0,037.8,031.0,19.5,0000.0,0004.35,0018.69,0002.95
2023-05-31 04:27:00,SystemResetWarning,0827.2,5.01,000.00,029.4,027.9,000.0,037.8,031.0,19.4,0000.0,0004.34,0018.73,0002.93
2023-05-31 04:28:00,SystemResetWarning,0827.2,5.01,000.00,029.4,027.9,000.0,037.8,031.0,19.4,0000.0,0004.30,0018.02,0002.90
2023-05-31 04:29:00,SystemResetWarning,0827.3,4.98,000.00,029.4,027.9,000.0,037.8,031.0,19.4,0000.0,0004.24,0017.12,0002.85
2023-05-31 04:30:00,SystemResetWarning,0827.4,5.01,000.00,029.4,027.9,000.0,037.8,031.0,19.4,0000.0,0004.18,0016.98,0002.81
2023-05-31 04:31:00,SystemResetWarning,0827.4,5.02,000.00,029.5,027.9,000.0,037.8,031.0,19.4,0000.0,0004.15,0016.37,0002.80
2023-05-31 04:32:00,SystemResetWarning,0827.4,4.99,000.00,029.5,027.9,000.0,037.8,031.0,19.5,0000.0,0004.08,0016.22,0002.79
2023-05-31 04:33:00,SystemResetWarning,0827.8,4.99,000.00,029.5,027.9,000.0,037.8,031.1,19.5,0000.0,0004.08,0015.87,0002.79
2023-05-31 04:34:00,SystemResetWarning,0827.5,5.01,000.00,029.5,027.9,000.0,037.8,031.1,19.5,0000.0,0004.10,0014.35,0002.77
2023-05-31 04:35:00,SystemResetWarning,0827.5,5.01,000.00,029.5,027.9,000.0,037.8,031.1,19.5,0000.0,0004.11,0014.80,0002.77
2023-05-31 04:36:00,SystemResetWarning,0827.5,5.00,000.00,029.5,027.9,000.0,037.8,031.1,19.5,0000.0,0004.10,0016.48,0002.75
2023-05-31 04:37:00,SystemResetWarning,0827.6,5.00,000.00,029.5,027.9,000.0,037.8,031.1,19.5,0000.0,0004.09,0017.23,0002.73
2023-05-31 04:38:00,SystemResetWarning,0827.7,4.99,000.00,029.5,027.9,000.0,037.8,031.1,19.6,0000.0,0004.03,0016.70,0002.71
2023-05-31 04:39:00,SystemResetWarning,0827.7,5.00,000.00,029.5,028.0,000.0,037.9,031.1,19.6,0000.0,0003.98,0017.07,0002.69
2023-05-31 04:40:00,SystemResetWarning,0827.7,5.00,000.00,029.5,028.0,000.0,037.9,031.1,19.7,0000.0,0004.02,0017.04,0002.69
2023-05-31 04:41:00,SystemResetWarning,0827.7,4.99,000.00,029.5,028.0,000.0,037.9,031.1,19.7,0000.0,0004.06,0016.79,0002.68
2023-05-31 04:42:00,SystemResetWarning,0827.7,4.99,000.00,029.5,028.0,000.0,037.9,031.1,19.8,0000.0,0004.12,0017.47,0002.66
2023-05-31 04:43:00,SystemResetWarning,0827.7,5.00,000.00,029.5,028.0,000.0,037.9,031.1,19.8,0000.0,0004.14,0018.80,0002.63
2023-05-31 04:44:00,SystemResetWarning,0827.7,5.00,000.00,029.5,028.0,000.0,037.9,031.1,19.8,0000.0,0004.11,0018.55,0002.61
2023-05-31 04:45:00,SystemResetWarning,0827.7,5.01,000.00,029.5,028.0,000.0,037.9,031.1,19.9,0000.0,0004.09,0018.77,0002.61
2023-05-31 04:46:00,SystemResetWarning,0827.8,5.02,000.00,029.6,028.0,000.0,037.9,031.2,19.9,0000.0,0004.09,0018.29,0002.59
2023-05-31 04:47:00,SystemResetWarning,0827.7,5.00,000.00,029.6,028.0,000.0,037.9,031.1,19.9,0000.0,0004.09,0017.07,0002.56
2023-05-31 04:48:00,SystemResetWarning,0827.8,4.99,000.00,029.6,028.0,000.0,037.9,031.1,19.9,0000.0,0004.14,0017.70,0002.56
2023-05-31 04:49:00,SystemResetWarning,0827.7,4.99,000.00,029.6,028.0,000.0,037.9,031.2,19.9,0000.0,0004.16,0017.49,0002.53
2023-05-31 04:50:00,SystemResetWarning,0827.8,5.00,000.00,029.6,028.0,000.0,037.9,031.2,19.9,0000.0,0004.21,0017.59,0002.52
2023-05-31 04:51:00,SystemResetWarning,0827.8,5.01,000.00,029.6,028.0,000.0,037.9,031.2,20.0,0000.0,0004.23,0017.81,0002.52
2023-05-31 04:52:00,SystemResetWarning,0827.9,5.00,000.00,029.6,028.0,000.0,037.9,031.2,19.9,0000.0,0004.23,0016.91,0002.52
2023-05-31 04:53:00,SystemResetWarning,0827.9,5.00,000.00,029.6,028.0,000.0,037.9,031.2,19.9,0000.0,0004.23,0017.32,0002.52
2023-05-31 04:54:00,SystemResetWarning,0828.0,5.00,000.00,029.6,028.0,000.0,037.9,031.2,19.9,0000.0,0004.25,0016.56,0002.54
2023-05-31 04:55:00,SystemResetWarning,0828.0,5.00,000.00,029.6,028.0,000.0,037.9,031.2,19.9,0000.0,0004.26,0016.25,0002.54
2023-05-31 04:56:00,SystemResetWarning,0828.1,5.00,000.00,029.6,028.0,000.0,037.9,031.2,19.9,0000.0,0004.28,0016.57,0002.55
2023-05-31 04:57:00,SystemResetWarning,0828.1,5.00,000.00,029.6,028.0,000.0,037.9,031.2,19.9,0000.0,0004.27,0016.42,0002.55
2023-05-31 04:58:00,SystemResetWarning,0828.1,5.01,000.00,029.6,028.1,000.0,038.0,031.2,19.8,0000.0,0004.26,0016.27,0002.57
2023-05-31 04:59:00,SystemResetWarning,0828.1,5.01,000.00,029.6,028.1,000.0,038.0,031.2,19.9,0000.0,0004.20,0015.53,0002.59
